Time,TemperatureF,DewpointF,PressureIn,WindDirection,WindDirectionDegrees,WindSpeedMPH,WindSpeedGustMPH,Humidity,HourlyPrecipIn,Conditions,Clouds,dailyrainin,SoftwareType,DateUTC
2013-05-28 00:02:00,70.2,38.8,-100.00,SW,234,11.0,30.0,32,0.00,,,0.00,meteohub,2013-05-28 07:02:00,
2013-05-28 00:07:00,70.2,38.8,-100.00,SW,228,8.0,28.0,32,0.00,,,0.00,meteohub,2013-05-28 07:07:00,
2013-05-28 00:12:00,70.3,39.0,-100.00,SW,236,16.0,27.0,32,0.00,,,0.00,meteohub,2013-05-28 07:12:00,
2013-05-28 00:17:00,70.2,38.8,-100.00,WSW,240,15.0,27.0,32,0.00,,,0.00,meteohub,2013-05-28 07:17:00,
2013-05-28 00:22:00,70.2,39.7,-100.00,SW,221,11.0,27.0,33,0.00,,,0.00,meteohub,2013-05-28 07:22:00,
2013-05-28 00:27:00,69.6,39.2,-100.00,WSW,238,10.0,23.0,33,0.00,,,0.00,meteohub,2013-05-28 07:27:00,
2013-05-28 00:32:00,69.3,39.7,-100.00,SW,226,24.0,25.0,34,0.00,,,0.00,meteohub,2013-05-28 07:32:00,
2013-05-28 00:37:00,69.3,39.7,-100.00,WSW,240,20.0,29.0,34,0.00,,,0.00,meteohub,2013-05-28 07:37:00,
2013-05-28 00:42:00,69.1,39.6,-100.00,WSW,238,7.0,31.0,34,0.00,,,0.00,meteohub,2013-05-28 07:42:00,
2013-05-28 00:47:00,69.3,39.7,-100.00,SW,221,4.0,31.0,34,0.00,,,0.00,meteohub,2013-05-28 07:47:00,
2013-05-28 00:52:00,69.4,39.9,-100.00,WSW,241,11.0,24.0,34,0.00,,,0.00,meteohub,2013-05-28 07:52:00,
2013-05-28 00:57:00,70.0,39.6,-100.00,West,267,18.0,20.0,33,0.00,,,0.00,meteohub,2013-05-28 07:57:00,
2013-05-28 01:02:00,70.0,39.6,-100.00,WSW,241,15.0,20.0,33,0.00,,,0.00,meteohub,2013-05-28 08:02:00,
2013-05-28 01:07:00,70.0,39.6,-100.00,West,267,7.0,20.0,33,0.00,,,0.00,meteohub,2013-05-28 08:07:00,
2013-05-28 01:12:00,70.0,39.6,-100.00,WSW,242,10.0,20.0,33,0.00,,,0.00,meteohub,2013-05-28 08:12:00,
2013-05-28 01:17:00,70.0,39.6,-100.00,SW,223,4.0,20.0,33,0.00,,,0.00,meteohub,2013-05-28 08:17:00,
2013-05-28 01:22:00,69.4,39.9,-100.00,SW,223,15.0,16.0,34,0.00,,,0.00,meteohub,2013-05-28 08:22:00,
2013-05-28 01:27:00,68.9,39.4,-100.00,SSW,210,10.0,15.0,34,0.00,,,0.00,meteohub,2013-05-28 08:27:00,
2013-05-28 01:32:00,68.9,39.4,-100.00,SW,215,3.0,15.0,34,0.00,,,0.00,meteohub,2013-05-28 08:32:00,
2013-05-28 01:37:00,68.9,39.4,-100.00,SW,230,4.0,15.0,34,0.00,,,0.00,meteohub,2013-05-28 08:37:00,
2013-05-28 01:42:00,68.9,39.4,-100.00,SW,214,6.0,14.0,34,0.00,,,0.00,meteohub,2013-05-28 08:42:00,
2013-05-28 01:47:00,68.7,39.2,-100.00,South,183,9.0,14.0,34,0.00,,,0.00,meteohub,2013-05-28 08:47:00,
2013-05-28 01:52:00,68.7,39.2,-100.00,SSW,210,6.0,15.0,34,0.00,,,0.00,meteohub,2013-05-28 08:52:00,
2013-05-28 01:57:00,68.5,39.0,-100.00,SW,215,4.0,15.0,34,0.00,,,0.00,meteohub,2013-05-28 08:57:00,
2013-05-28 02:02:00,68.4,38.8,-100.00,SW,230,6.0,15.0,34,0.00,,,0.00,meteohub,2013-05-28 09:02:00,
2013-05-28 02:07:00,68.7,39.2,-100.00,SW,218,14.0,14.0,34,0.00,,,0.00,meteohub,2013-05-28 09:07:00,
2013-05-28 02:12:00,68.7,39.2,-100.00,WSW,242,11.0,16.0,34,0.00,,,0.00,meteohub,2013-05-28 09:12:00,
2013-05-28 02:17:00,68.4,39.6,-100.00,SW,235,11.0,24.0,35,0.00,,,0.00,meteohub,2013-05-28 09:17:00,
2013-05-28 02:22:00,68.5,39.7,-100.00,West,259,20.0,24.0,35,0.00,,,0.00,meteohub,2013-05-28 09:22:00,
2013-05-28 02:27:00,68.5,39.7,-100.00,WSW,249,14.0,24.0,35,0.00,,,0.00,meteohub,2013-05-28 09:27:00,
2013-05-28 02:32:00,68.4,39.6,-100.00,SW,236,15.0,22.0,35,0.00,,,0.00,meteohub,2013-05-28 09:32:00,
2013-05-28 02:37:00,68.5,39.7,-100.00,SW,231,4.0,22.0,35,0.00,,,0.00,meteohub,2013-05-28 09:37:00,
2013-05-28 02:42:00,68.5,39.7,-100.00,WSW,246,12.0,19.0,35,0.00,,,0.00,meteohub,2013-05-28 09:42:00,
2013-05-28 02:47:00,68.5,40.5,-100.00,SW,235,16.0,18.0,36,0.00,,,0.00,meteohub,2013-05-28 09:47:00,
2013-05-28 02:52:00,68.2,40.3,-100.00,WSW,255,7.0,25.0,36,0.00,,,0.00,meteohub,2013-05-28 09:52:00,
2013-05-28 02:57:00,68.0,40.1,-100.00,SW,218,11.0,25.0,36,0.00,,,0.00,meteohub,2013-05-28 09:57:00,
2013-05-28 03:02:00,68.0,39.4,-100.00,SW,228,10.0,25.0,35,0.00,,,0.00,meteohub,2013-05-28 10:02:00,
2013-05-28 03:07:00,68.0,39.4,-100.00,WSW,255,7.0,22.0,35,0.00,,,0.00,meteohub,2013-05-28 10:07:00,
2013-05-28 03:12:00,67.8,39.2,-100.00,SW,218,15.0,22.0,35,0.00,,,0.00,meteohub,2013-05-28 10:12:00,
2013-05-28 03:17:00,67.6,39.0,-100.00,WSW,243,7.0,22.0,35,0.00,,,0.00,meteohub,2013-05-28 10:17:00,
2013-05-28 03:22:00,67.6,39.7,-100.00,SSW,205,9.0,19.0,36,0.00,,,0.00,meteohub,2013-05-28 10:22:00,
2013-05-28 03:27:00,67.6,39.7,-100.00,SSW,211,13.0,18.0,36,0.00,,,0.00,meteohub,2013-05-28 10:27:00,
2013-05-28 03:32:00,67.3,39.4,-100.00,WSW,244,12.0,23.0,36,0.00,,,0.00,meteohub,2013-05-28 10:32:00,
2013-05-28 03:37:00,67.6,39.7,-100.00,West,274,8.0,23.0,36,0.00,,,0.00,meteohub,2013-05-28 10:37:00,
2013-05-28 03:42:00,67.6,39.7,-100.00,WSW,246,13.0,23.0,36,0.00,,,0.00,meteohub,2013-05-28 10:42:00,
2013-05-28 03:47:00,67.6,39.7,-100.00,SSW,209,13.0,21.0,36,0.00,,,0.00,meteohub,2013-05-28 10:47:00,
2013-05-28 03:52:00,67.5,39.6,-100.00,WSW,237,11.0,21.0,36,0.00,,,0.00,meteohub,2013-05-28 10:52:00,
2013-05-28 03:57:00,67.5,40.3,-100.00,WSW,237,11.0,22.0,37,0.00,,,0.00,meteohub,2013-05-28 10:57:00,
2013-05-28 04:02:00,67.8,39.9,-100.00,WSW,248,5.0,22.0,36,0.00,,,0.00,meteohub,2013-05-28 11:02:00,
2013-05-28 04:07:00,68.0,39.4,-100.00,SW,227,9.0,22.0,35,0.00,,,0.00,meteohub,2013-05-28 11:07:00,
2013-05-28 04:12:00,68.2,39.6,-100.00,WSW,247,9.0,18.0,35,0.00,,,0.00,meteohub,2013-05-28 11:12:00,
2013-05-28 04:17:00,68.2,38.7,-100.00,WSW,257,12.0,18.0,34,0.00,,,0.00,meteohub,2013-05-28 11:17:00,
2013-05-28 04:22:00,68.0,39.4,-100.00,WSW,243,13.0,18.0,35,0.00,,,0.00,meteohub,2013-05-28 11:22:00,
2013-05-28 04:27:00,68.2,38.7,-100.00,SW,231,6.0,21.0,34,0.00,,,0.00,meteohub,2013-05-28 11:27:00,
2013-05-28 04:32:00,68.5,39.0,-100.00,SW,215,13.0,21.0,34,0.00,,,0.00,meteohub,2013-05-28 11:32:00,
2013-05-28 04:37:00,68.5,38.3,-100.00,WSW,237,10.0,21.0,33,0.00,,,0.00,meteohub,2013-05-28 11:37:00,
2013-05-28 04:42:00,68.5,38.3,-100.00,SW,216,9.0,19.0,33,0.00,,,0.00,meteohub,2013-05-28 11:42:00,
2013-05-28 04:47:00,68.5,38.3,-100.00,SW,215,15.0,16.0,33,0.00,,,0.00,meteohub,2013-05-28 11:47:00,
2013-05-28 04:52:00,68.2,38.7,-100.00,SW,224,10.0,21.0,34,0.00,,,0.00,meteohub,2013-05-28 11:52:00,
2013-05-28 04:57:00,68.2,38.7,-100.00,SW,217,9.0,21.0,34,0.00,,,0.00,meteohub,2013-05-28 11:57:00,
2013-05-28 05:02:00,67.8,38.5,-100.00,WSW,252,16.0,21.0,34,0.00,,,0.00,meteohub,2013-05-28 12:02:00,
2013-05-28 05:07:00,68.2,37.9,-100.00,SW,222,13.0,18.0,33,0.00,,,0.00,meteohub,2013-05-28 12:07:00,
2013-05-28 05:12:00,68.2,38.7,-100.00,SW,236,15.0,18.0,34,0.00,,,0.00,meteohub,2013-05-28 12:12:00,
2013-05-28 05:17:00,68.2,38.7,-100.00,SW,223,9.0,25.0,34,0.00,,,0.00,meteohub,2013-05-28 12:17:00,
2013-05-28 05:22:00,68.2,38.7,-100.00,WSW,255,13.0,25.0,34,0.00,,,0.00,meteohub,2013-05-28 12:22:00,
2013-05-28 05:27:00,67.5,38.8,-100.00,SW,236,10.0,25.0,35,0.00,,,0.00,meteohub,2013-05-28 12:27:00,
2013-05-28 05:32:00,66.9,39.0,-100.00,SW,224,10.0,21.0,36,0.00,,,0.00,meteohub,2013-05-28 12:32:00,
2013-05-28 05:37:00,66.7,39.0,-100.00,SW,215,11.0,23.0,36,0.00,,,0.00,meteohub,2013-05-28 12:37:00,
2013-05-28 05:42:00,66.9,39.0,-100.00,WSW,242,9.0,25.0,36,0.00,,,0.00,meteohub,2013-05-28 12:42:00,
2013-05-28 05:47:00,66.9,39.0,-100.00,SW,236,20.0,25.0,36,0.00,,,0.00,meteohub,2013-05-28 12:47:00,
2013-05-28 05:52:00,67.3,39.4,-100.00,SW,215,18.0,23.0,36,0.00,,,0.00,meteohub,2013-05-28 12:52:00,
2013-05-28 05:57:00,67.1,39.2,-100.00,SW,219,12.0,23.0,36,0.00,,,0.00,meteohub,2013-05-28 12:57:00,
2013-05-28 06:02:00,66.7,39.6,-100.00,SW,219,16.0,22.0,37,0.00,,,0.00,meteohub,2013-05-28 13:02:00,
2013-05-28 06:07:00,66.9,39.0,-100.00,WSW,253,19.0,28.0,36,0.00,,,0.00,meteohub,2013-05-28 13:07:00,
2013-05-28 06:12:00,67.1,39.2,-100.00,WSW,253,14.0,35.0,36,0.00,,,0.00,meteohub,2013-05-28 13:12:00,
2013-05-28 06:17:00,67.3,39.4,-100.00,WSW,255,14.0,35.0,36,0.00,,,0.00,meteohub,2013-05-28 13:17:00,
2013-05-28 06:22:00,67.5,39.6,-100.00,West,269,17.0,35.0,36,0.00,,,0.00,meteohub,2013-05-28 13:22:00,
2013-05-28 06:27:00,67.5,39.6,-100.00,WSW,250,14.0,30.0,36,0.00,,,0.00,meteohub,2013-05-28 13:27:00,
2013-05-28 06:32:00,67.5,39.6,-100.00,West,270,11.0,30.0,36,0.00,,,0.00,meteohub,2013-05-28 13:32:00,
2013-05-28 06:37:00,67.5,39.6,-100.00,SW,232,8.0,28.0,36,0.00,,,0.00,meteohub,2013-05-28 13:37:00,
2013-05-28 06:42:00,67.3,39.4,-100.00,SW,232,19.0,29.0,36,0.00,,,0.00,meteohub,2013-05-28 13:42:00,
2013-05-28 06:47:00,67.3,40.1,-100.00,WSW,253,14.0,29.0,37,0.00,,,0.00,meteohub,2013-05-28 13:47:00,
2013-05-28 06:52:00,67.5,39.6,-100.00,West,267,11.0,29.0,36,0.00,,,0.00,meteohub,2013-05-28 13:52:00,
2013-05-28 06:57:00,67.8,39.9,-100.00,WSW,252,15.0,26.0,36,0.00,,,0.00,meteohub,2013-05-28 13:57:00,
2013-05-28 07:02:00,68.5,39.7,-100.00,SW,230,13.0,22.0,35,0.00,,,0.00,meteohub,2013-05-28 14:02:00,
2013-05-28 07:07:00,68.2,40.3,-100.00,SW,225,19.0,19.0,36,0.00,,,0.00,meteohub,2013-05-28 14:07:00,
2013-05-28 07:12:00,68.4,40.3,-100.00,SW,227,17.0,20.0,36,0.00,,,0.00,meteohub,2013-05-28 14:12:00,
2013-05-28 07:17:00,68.5,39.7,-100.00,WSW,237,15.0,20.0,35,0.00,,,0.00,meteohub,2013-05-28 14:17:00,
2013-05-28 07:22:00,68.2,40.3,-100.00,WSW,243,8.0,24.0,36,0.00,,,0.00,meteohub,2013-05-28 14:22:00,
2013-05-28 07:27:00,66.9,40.5,-100.00,SW,236,31.0,31.0,38,0.00,,,0.00,meteohub,2013-05-28 14:27:00,
2013-05-28 07:32:00,66.9,41.2,-100.00,SW,219,21.0,31.0,39,0.00,,,0.00,meteohub,2013-05-28 14:32:00,
2013-05-28 07:37:00,67.6,41.2,-100.00,SW,221,19.0,31.0,38,0.00,,,0.00,meteohub,2013-05-28 14:37:00,
2013-05-28 07:42:00,67.8,40.6,-100.00,WSW,243,13.0,31.0,37,0.00,,,0.00,meteohub,2013-05-28 14:42:00,
2013-05-28 07:47:00,68.5,41.2,-100.00,WSW,258,17.0,29.0,37,0.00,,,0.00,meteohub,2013-05-28 14:47:00,
2013-05-28 07:52:00,68.9,40.1,-100.00,SW,228,12.0,29.0,35,0.00,,,0.00,meteohub,2013-05-28 14:52:00,
2013-05-28 07:57:00,70.2,41.2,-100.00,SW,236,8.0,22.0,35,0.00,,,0.00,meteohub,2013-05-28 14:57:00,
2013-05-28 08:02:00,71.2,41.4,-100.00,WSW,241,11.0,20.0,34,0.00,,,0.00,meteohub,2013-05-28 15:02:00,
2013-05-28 08:07:00,72.1,39.0,-100.00,West,269,12.0,19.0,30,0.00,,,0.00,meteohub,2013-05-28 15:07:00,
2013-05-28 08:12:00,72.0,39.7,-100.00,West,261,7.0,16.0,31,0.00,,,0.00,meteohub,2013-05-28 15:12:00,
2013-05-28 08:17:00,72.0,39.7,-100.00,West,271,13.0,17.0,31,0.00,,,0.00,meteohub,2013-05-28 15:17:00,
2013-05-28 08:22:00,72.0,38.8,-100.00,WNW,284,6.0,17.0,30,0.00,,,0.00,meteohub,2013-05-28 15:22:00,
2013-05-28 08:27:00,72.3,39.2,-100.00,WNW,294,8.0,17.0,30,0.00,,,0.00,meteohub,2013-05-28 15:27:00,
2013-05-28 08:32:00,72.7,40.3,-100.00,West,277,4.0,15.0,31,0.00,,,0.00,meteohub,2013-05-28 15:32:00,
2013-05-28 08:37:00,72.9,40.5,-100.00,West,262,10.0,12.0,31,0.00,,,0.00,meteohub,2013-05-28 15:37:00,
2013-05-28 08:42:00,72.7,39.4,-100.00,WNW,284,7.0,11.0,30,0.00,,,0.00,meteohub,2013-05-28 15:42:00,
2013-05-28 08:47:00,72.9,39.6,-100.00,West,279,5.0,11.0,30,0.00,,,0.00,meteohub,2013-05-28 15:47:00,
2013-05-28 08:52:00,73.2,39.9,-100.00,WSW,253,7.0,11.0,30,0.00,,,0.00,meteohub,2013-05-28 15:52:00,
2013-05-28 08:57:00,74.1,41.5,-100.00,West,266,8.0,9.0,31,0.00,,,0.00,meteohub,2013-05-28 15:57:00,
2013-05-28 09:02:00,74.7,40.3,-100.00,West,269,4.0,10.0,29,0.00,,,0.00,meteohub,2013-05-28 16:02:00,
2013-05-28 09:07:00,75.2,38.8,-100.00,WNW,288,5.0,11.0,27,0.00,,,0.00,meteohub,2013-05-28 16:07:00,
2013-05-28 09:12:00,74.7,39.4,-100.00,WNW,284,4.0,11.0,28,0.00,,,0.00,meteohub,2013-05-28 16:12:00,
2013-05-28 09:17:00,74.7,39.4,-100.00,NNW,332,2.0,11.0,28,0.00,,,0.00,meteohub,2013-05-28 16:17:00,
2013-05-28 09:22:00,75.0,38.8,-100.00,NW,314,2.0,10.0,27,0.00,,,0.00,meteohub,2013-05-28 16:22:00,
2013-05-28 09:27:00,75.2,39.9,-100.00,WNW,298,4.0,7.0,28,0.00,,,0.00,meteohub,2013-05-28 16:27:00,
2013-05-28 09:32:00,76.1,39.7,-100.00,WSW,252,5.0,7.0,27,0.00,,,0.00,meteohub,2013-05-28 16:32:00,
2013-05-28 09:37:00,76.3,38.8,-100.00,WSW,252,3.0,7.0,26,0.00,,,0.00,meteohub,2013-05-28 16:37:00,
2013-05-28 09:42:00,75.9,38.7,-100.00,WSW,252,0.0,7.0,26,0.00,,,0.00,meteohub,2013-05-28 16:42:00,
2013-05-28 09:47:00,76.6,38.1,-100.00,SW,216,0.0,6.0,25,0.00,,,0.00,meteohub,2013-05-28 16:47:00,
2013-05-28 09:52:00,77.2,38.7,-100.00,NE,49,0.0,4.0,25,0.00,,,0.00,meteohub,2013-05-28 16:52:00,
2013-05-28 09:57:00,78.1,38.3,-100.00,SSW,202,1.0,2.0,24,0.00,,,0.00,meteohub,2013-05-28 16:57:00,
2013-05-28 10:02:00,78.8,39.0,-100.00,SSW,204,1.0,5.0,24,0.00,,,0.00,meteohub,2013-05-28 17:02:00,
2013-05-28 10:08:00,80.1,37.8,-100.00,SSE,155,0.0,5.0,22,0.00,,,0.00,meteohub,2013-05-28 17:08:00,
2013-05-28 10:13:00,79.5,37.4,-100.00,WSW,250,1.0,5.0,22,0.00,,,0.00,meteohub,2013-05-28 17:13:00,
2013-05-28 10:18:00,80.4,38.1,-100.00,SSW,194,4.0,6.0,22,0.00,,,0.00,meteohub,2013-05-28 17:18:00,
2013-05-28 10:23:00,80.8,38.5,-100.00,SW,234,3.0,9.0,22,0.00,,,0.00,meteohub,2013-05-28 17:23:00,
2013-05-28 10:28:00,81.1,38.7,-100.00,SSE,165,1.0,9.0,22,0.00,,,0.00,meteohub,2013-05-28 17:28:00,
2013-05-28 10:33:00,81.7,37.9,-100.00,SE,138,4.0,9.0,21,0.00,,,0.00,meteohub,2013-05-28 17:33:00,
2013-05-28 10:38:00,82.2,38.5,-100.00,SE,144,4.0,8.0,21,0.00,,,0.00,meteohub,2013-05-28 17:38:00,
2013-05-28 10:43:00,83.1,37.9,-100.00,SE,144,2.0,7.0,20,0.00,,,0.00,meteohub,2013-05-28 17:43:00,
2013-05-28 10:48:00,83.1,37.9,-100.00,South,180,4.0,7.0,20,0.00,,,0.00,meteohub,2013-05-28 17:48:00,
2013-05-28 10:53:00,82.8,37.6,-100.00,SSE,154,1.0,7.0,20,0.00,,,0.00,meteohub,2013-05-28 17:53:00,
2013-05-28 10:58:00,82.9,37.8,-100.00,ENE,59,0.0,7.0,20,0.00,,,0.00,meteohub,2013-05-28 17:58:00,
2013-05-28 11:03:00,82.0,37.0,-100.00,WSW,243,3.0,6.0,20,0.00,,,0.00,meteohub,2013-05-28 18:03:00,
2013-05-28 11:08:00,82.0,37.0,-100.00,West,277,4.0,7.0,20,0.00,,,0.00,meteohub,2013-05-28 18:08:00,
2013-05-28 11:13:00,82.0,38.3,-100.00,WNW,296,4.0,9.0,21,0.00,,,0.00,meteohub,2013-05-28 18:13:00,
2013-05-28 11:18:00,82.8,37.6,-100.00,East,92,3.0,9.0,20,0.00,,,0.00,meteohub,2013-05-28 18:18:00,
2013-05-28 11:23:00,85.8,37.4,-100.00,East,82,6.0,9.0,18,0.00,,,0.00,meteohub,2013-05-28 18:23:00,
2013-05-28 11:28:00,85.6,35.8,-100.00,NE,42,5.0,10.0,17,0.00,,,0.00,meteohub,2013-05-28 18:28:00,
2013-05-28 11:33:00,86.0,36.1,-100.00,NE,44,6.0,11.0,17,0.00,,,0.00,meteohub,2013-05-28 18:33:00,
2013-05-28 11:38:00,85.3,37.0,-100.00,ENE,74,8.0,11.0,18,0.00,,,0.00,meteohub,2013-05-28 18:38:00,
2013-05-28 11:43:00,86.2,36.3,-100.00,NNE,13,6.0,11.0,17,0.00,,,0.00,meteohub,2013-05-28 18:43:00,
2013-05-28 11:48:00,86.4,36.3,-100.00,East,85,9.0,11.0,17,0.00,,,0.00,meteohub,2013-05-28 18:48:00,
2013-05-28 11:53:00,86.2,36.3,-100.00,East,88,5.0,11.0,17,0.00,,,0.00,meteohub,2013-05-28 18:53:00,
2013-05-28 11:58:00,85.5,35.6,-100.00,ENE,77,4.0,9.0,17,0.00,,,0.00,meteohub,2013-05-28 18:58:00,
2013-05-28 12:03:00,87.4,37.2,-100.00,SE,124,6.0,9.0,17,0.00,,,0.00,meteohub,2013-05-28 19:03:00,
2013-05-28 12:08:00,88.0,36.1,-100.00,East,98,8.0,9.0,16,0.00,,,0.00,meteohub,2013-05-28 19:08:00,
2013-05-28 12:13:00,88.2,36.3,-100.00,ESE,112,10.0,11.0,16,0.00,,,0.00,meteohub,2013-05-28 19:13:00,
2013-05-28 12:18:00,88.3,36.5,-100.00,East,101,8.0,13.0,16,0.00,,,0.00,meteohub,2013-05-28 19:18:00,
2013-05-28 12:23:00,88.7,35.1,-100.00,ESE,122,5.0,13.0,15,0.00,,,0.00,meteohub,2013-05-28 19:23:00,
2013-05-28 12:28:00,87.3,34.0,-100.00,ENE,70,3.0,11.0,15,0.00,,,0.00,meteohub,2013-05-28 19:28:00,
2013-05-28 12:33:00,85.3,34.0,-100.00,NNE,27,1.0,10.0,16,0.00,,,0.00,meteohub,2013-05-28 19:33:00,
2013-05-28 12:38:00,85.5,34.2,-100.00,NNW,338,2.0,10.0,16,0.00,,,0.00,meteohub,2013-05-28 19:38:00,
2013-05-28 12:43:00,86.7,35.2,-100.00,SE,133,6.0,6.0,16,0.00,,,0.00,meteohub,2013-05-28 19:43:00,
2013-05-28 12:48:00,88.3,34.9,-100.00,SE,134,1.0,10.0,15,0.00,,,0.00,meteohub,2013-05-28 19:48:00,
2013-05-28 12:53:00,89.1,35.4,-100.00,East,92,11.0,11.0,15,0.00,,,0.00,meteohub,2013-05-28 19:53:00,
2013-05-28 12:58:00,90.3,34.7,-100.00,NE,53,5.0,15.0,14,0.00,,,0.00,meteohub,2013-05-28 19:58:00,
2013-05-28 13:03:00,90.0,34.3,-100.00,South,179,3.0,15.0,14,0.00,,,0.00,meteohub,2013-05-28 20:03:00,
2013-05-28 13:08:00,89.1,35.4,-100.00,SSE,151,2.0,15.0,15,0.00,,,0.00,meteohub,2013-05-28 20:08:00,
2013-05-28 13:13:00,87.6,36.0,-100.00,ENE,78,8.0,15.0,16,0.00,,,0.00,meteohub,2013-05-28 20:13:00,
2013-05-28 13:18:00,89.8,36.0,-100.00,ESE,107,7.0,12.0,15,0.00,,,0.00,meteohub,2013-05-28 20:18:00,
2013-05-28 13:23:00,89.4,34.0,-100.00,NNE,23,2.0,12.0,14,0.00,,,0.00,meteohub,2013-05-28 20:23:00,
2013-05-28 13:28:00,90.3,36.3,-100.00,ESE,105,8.0,12.0,15,0.00,,,0.00,meteohub,2013-05-28 20:28:00,
2013-05-28 13:33:00,90.0,34.3,-100.00,SSW,210,2.0,11.0,14,0.00,,,0.00,meteohub,2013-05-28 20:33:00,
2013-05-28 13:38:00,89.1,35.4,-100.00,WSW,258,5.0,11.0,15,0.00,,,0.00,meteohub,2013-05-28 20:38:00,
2013-05-28 13:43:00,87.8,36.0,-100.00,South,191,1.0,11.0,16,0.00,,,0.00,meteohub,2013-05-28 20:43:00,
2013-05-28 13:48:00,90.1,34.5,-100.00,SE,146,6.0,8.0,14,0.00,,,0.00,meteohub,2013-05-28 20:48:00,
2013-05-28 13:53:00,91.0,35.2,-100.00,SSE,150,4.0,12.0,14,0.00,,,0.00,meteohub,2013-05-28 20:53:00,
2013-05-28 13:58:00,90.7,34.9,-100.00,SSW,198,4.0,12.0,14,0.00,,,0.00,meteohub,2013-05-28 20:58:00,
2013-05-28 14:03:00,90.1,37.9,-100.00,South,185,6.0,12.0,16,0.00,,,0.00,meteohub,2013-05-28 21:03:00,
2013-05-28 14:08:00,90.9,36.9,-100.00,SW,221,14.0,14.0,15,0.00,,,0.00,meteohub,2013-05-28 21:08:00,
2013-05-28 14:13:00,89.2,38.7,-100.00,West,263,5.0,18.0,17,0.00,,,0.00,meteohub,2013-05-28 21:13:00,
2013-05-28 14:18:00,89.4,37.4,-100.00,WSW,248,7.0,18.0,16,0.00,,,0.00,meteohub,2013-05-28 21:18:00,
2013-05-28 14:23:00,89.8,37.6,-100.00,WSW,244,13.0,15.0,16,0.00,,,0.00,meteohub,2013-05-28 21:23:00,
2013-05-28 14:28:00,89.2,38.7,-100.00,WSW,254,10.0,17.0,17,0.00,,,0.00,meteohub,2013-05-28 21:28:00,
2013-05-28 14:33:00,90.0,39.4,-100.00,SSW,196,13.0,17.0,17,0.00,,,0.00,meteohub,2013-05-28 21:33:00,
2013-05-28 14:38:00,90.1,37.9,-100.00,SE,135,8.0,20.0,16,0.00,,,0.00,meteohub,2013-05-28 21:38:00,
2013-05-28 14:43:00,90.7,39.9,-100.00,SW,221,6.0,20.0,17,0.00,,,0.00,meteohub,2013-05-28 21:43:00,
2013-05-28 14:48:00,90.0,39.4,-100.00,WSW,241,7.0,20.0,17,0.00,,,0.00,meteohub,2013-05-28 21:48:00,
2013-05-28 14:53:00,89.8,40.6,-100.00,South,186,6.0,17.0,18,0.00,,,0.00,meteohub,2013-05-28 21:53:00,
2013-05-28 14:58:00,90.0,39.4,-100.00,SSW,207,10.0,18.0,17,0.00,,,0.00,meteohub,2013-05-28 21:58:00,
2013-05-28 15:03:00,89.8,39.2,-100.00,SW,215,8.0,18.0,17,0.00,,,0.00,meteohub,2013-05-28 22:03:00,
2013-05-28 15:08:00,90.0,39.4,-100.00,WSW,252,10.0,17.0,17,0.00,,,0.00,meteohub,2013-05-28 22:08:00,
2013-05-28 15:13:00,89.8,39.2,-100.00,WSW,245,15.0,20.0,17,0.00,,,0.00,meteohub,2013-05-28 22:13:00,
2013-05-28 15:18:00,90.0,39.4,-100.00,SW,234,15.0,20.0,17,0.00,,,0.00,meteohub,2013-05-28 22:18:00,
2013-05-28 15:23:00,89.8,39.2,-100.00,WSW,237,12.0,23.0,17,0.00,,,0.00,meteohub,2013-05-28 22:23:00,
2013-05-28 15:28:00,89.2,40.3,-100.00,WSW,246,5.0,23.0,18,0.00,,,0.00,meteohub,2013-05-28 22:28:00,
2013-05-28 15:33:00,89.8,40.6,-100.00,WSW,243,17.0,23.0,18,0.00,,,0.00,meteohub,2013-05-28 22:33:00,
2013-05-28 15:38:00,89.4,40.3,-100.00,SW,232,11.0,22.0,18,0.00,,,0.00,meteohub,2013-05-28 22:38:00,
2013-05-28 15:43:00,88.5,41.0,-100.00,SW,231,11.0,26.0,19,0.00,,,0.00,meteohub,2013-05-28 22:43:00,
2013-05-28 15:48:00,88.2,39.4,-100.00,SW,234,15.0,27.0,18,0.00,,,0.00,meteohub,2013-05-28 22:48:00,
2013-05-28 15:53:00,88.5,39.6,-100.00,SW,232,14.0,27.0,18,0.00,,,0.00,meteohub,2013-05-28 22:53:00,
2013-05-28 15:58:00,88.9,39.9,-100.00,WSW,249,10.0,27.0,18,0.00,,,0.00,meteohub,2013-05-28 22:58:00,
2013-05-28 16:03:00,88.9,39.9,-100.00,WSW,245,9.0,23.0,18,0.00,,,0.00,meteohub,2013-05-28 23:03:00,
2013-05-28 16:08:00,88.9,41.4,-100.00,SSW,213,5.0,20.0,19,0.00,,,0.00,meteohub,2013-05-28 23:08:00,
2013-05-28 16:14:00,88.2,39.4,-100.00,SSW,207,9.0,22.0,18,0.00,,,0.00,meteohub,2013-05-28 23:14:00,
2013-05-28 16:19:00,88.3,40.8,-100.00,WSW,250,11.0,22.0,19,0.00,,,0.00,meteohub,2013-05-28 23:19:00,
2013-05-28 16:24:00,88.5,41.0,-100.00,WSW,257,11.0,22.0,19,0.00,,,0.00,meteohub,2013-05-28 23:24:00,
2013-05-28 16:29:00,88.2,40.6,-100.00,WSW,254,8.0,21.0,19,0.00,,,0.00,meteohub,2013-05-28 23:29:00,
2013-05-28 16:34:00,88.0,40.6,-100.00,West,267,10.0,22.0,19,0.00,,,0.00,meteohub,2013-05-28 23:34:00,
2013-05-28 16:39:00,87.8,40.5,-100.00,West,270,11.0,24.0,19,0.00,,,0.00,meteohub,2013-05-28 23:39:00,
2013-05-28 16:44:00,87.4,40.1,-100.00,WSW,253,9.0,24.0,19,0.00,,,0.00,meteohub,2013-05-28 23:44:00,
2013-05-28 16:49:00,87.4,41.4,-100.00,SW,232,16.0,23.0,20,0.00,,,0.00,meteohub,2013-05-28 23:49:00,
2013-05-28 16:54:00,87.1,39.7,-100.00,WSW,244,9.0,23.0,19,0.00,,,0.00,meteohub,2013-05-28 23:54:00,
2013-05-28 16:59:00,87.4,40.1,-100.00,WSW,247,20.0,23.0,19,0.00,,,0.00,meteohub,2013-05-28 23:59:00,
2013-05-28 17:04:00,87.1,39.7,-100.00,West,269,11.0,22.0,19,0.00,,,0.00,meteohub,2013-05-29 00:04:00,
2013-05-28 17:09:00,86.9,41.0,-100.00,West,265,18.0,22.0,20,0.00,,,0.00,meteohub,2013-05-29 00:09:00,
2013-05-28 17:14:00,86.5,40.6,-100.00,WSW,245,17.0,22.0,20,0.00,,,0.00,meteohub,2013-05-29 00:14:00,
2013-05-28 17:19:00,86.2,40.5,-100.00,SW,229,15.0,23.0,20,0.00,,,0.00,meteohub,2013-05-29 00:19:00,
2013-05-28 17:24:00,86.5,40.6,-100.00,WSW,252,12.0,23.0,20,0.00,,,0.00,meteohub,2013-05-29 00:24:00,
2013-05-28 17:29:00,86.7,39.6,-100.00,WSW,251,12.0,23.0,19,0.00,,,0.00,meteohub,2013-05-29 00:29:00,
2013-05-28 17:34:00,86.7,39.6,-100.00,SW,234,9.0,19.0,19,0.00,,,0.00,meteohub,2013-05-29 00:34:00,
2013-05-28 17:39:00,86.4,40.6,-100.00,SW,229,10.0,19.0,20,0.00,,,0.00,meteohub,2013-05-29 00:39:00,
2013-05-28 17:44:00,86.2,40.5,-100.00,WSW,248,11.0,19.0,20,0.00,,,0.00,meteohub,2013-05-29 00:44:00,
2013-05-28 17:49:00,86.2,40.5,-100.00,SSW,209,13.0,18.0,20,0.00,,,0.00,meteohub,2013-05-29 00:49:00,
2013-05-28 17:54:00,86.0,40.3,-100.00,WSW,257,14.0,18.0,20,0.00,,,0.00,meteohub,2013-05-29 00:54:00,
2013-05-28 17:59:00,85.6,39.9,-100.00,WSW,252,9.0,21.0,20,0.00,,,0.00,meteohub,2013-05-29 00:59:00,
2013-05-28 18:04:00,85.6,39.9,-100.00,SW,225,9.0,22.0,20,0.00,,,0.00,meteohub,2013-05-29 01:04:00,
2013-05-28 18:09:00,85.6,39.9,-100.00,WSW,254,9.0,22.0,20,0.00,,,0.00,meteohub,2013-05-29 01:09:00,
2013-05-28 18:14:00,85.3,39.7,-100.00,WSW,245,14.0,22.0,20,0.00,,,0.00,meteohub,2013-05-29 01:14:00,
2013-05-28 18:19:00,84.7,40.5,-100.00,WSW,239,13.0,19.0,21,0.00,,,0.00,meteohub,2013-05-29 01:19:00,
2013-05-28 18:24:00,84.4,40.1,-100.00,WSW,257,15.0,22.0,21,0.00,,,0.00,meteohub,2013-05-29 01:24:00,
2013-05-28 18:29:00,84.4,41.4,-100.00,West,266,14.0,22.0,22,0.00,,,0.00,meteohub,2013-05-29 01:29:00,
2013-05-28 18:34:00,84.0,39.9,-100.00,WSW,244,10.0,22.0,21,0.00,,,0.00,meteohub,2013-05-29 01:34:00,
2013-05-28 18:39:00,83.8,39.7,-100.00,WSW,243,12.0,21.0,21,0.00,,,0.00,meteohub,2013-05-29 01:39:00,
2013-05-28 18:44:00,83.3,40.5,-100.00,SW,226,12.0,21.0,22,0.00,,,0.00,meteohub,2013-05-29 01:44:00,
2013-05-28 18:49:00,82.8,41.2,-100.00,West,271,11.0,24.0,23,0.00,,,0.00,meteohub,2013-05-29 01:49:00,
2013-05-28 18:54:00,82.6,41.0,-100.00,WSW,247,11.0,24.0,23,0.00,,,0.00,meteohub,2013-05-29 01:54:00,
2013-05-28 18:59:00,82.4,40.8,-100.00,WSW,255,13.0,24.0,23,0.00,,,0.00,meteohub,2013-05-29 01:59:00,
2013-05-28 19:04:00,81.9,41.5,-100.00,West,265,15.0,21.0,24,0.00,,,0.00,meteohub,2013-05-29 02:04:00,
2013-05-28 19:09:00,81.1,41.9,-100.00,WSW,254,20.0,24.0,25,0.00,,,0.00,meteohub,2013-05-29 02:09:00,
2013-05-28 19:14:00,80.4,42.4,-100.00,WNW,292,14.0,27.0,26,0.00,,,0.00,meteohub,2013-05-29 02:14:00,
2013-05-28 19:19:00,80.1,42.1,-100.00,West,276,10.0,27.0,26,0.00,,,0.00,meteohub,2013-05-29 02:19:00,
2013-05-28 19:24:00,79.9,41.9,-100.00,West,268,14.0,27.0,26,0.00,,,0.00,meteohub,2013-05-29 02:24:00,
2013-05-28 19:29:00,79.7,41.7,-100.00,WSW,257,17.0,23.0,26,0.00,,,0.00,meteohub,2013-05-29 02:29:00,
2013-05-28 19:34:00,79.3,42.4,-100.00,WSW,246,10.0,22.0,27,0.00,,,0.00,meteohub,2013-05-29 02:34:00,
2013-05-28 19:39:00,79.2,42.3,-100.00,West,261,11.0,21.0,27,0.00,,,0.00,meteohub,2013-05-29 02:39:00,
2013-05-28 19:44:00,78.8,42.1,-100.00,West,269,12.0,20.0,27,0.00,,,0.00,meteohub,2013-05-29 02:44:00,
2013-05-28 19:49:00,78.4,42.6,-100.00,SW,230,8.0,20.0,28,0.00,,,0.00,meteohub,2013-05-29 02:49:00,
2013-05-28 19:54:00,78.1,42.3,-100.00,West,277,11.0,20.0,28,0.00,,,0.00,meteohub,2013-05-29 02:54:00,
2013-05-28 19:59:00,77.7,43.0,-100.00,WSW,246,11.0,19.0,29,0.00,,,0.00,meteohub,2013-05-29 02:59:00,
2013-05-28 20:04:00,77.4,42.6,-100.00,West,261,9.0,19.0,29,0.00,,,0.00,meteohub,2013-05-29 03:04:00,
2013-05-28 20:09:00,77.2,43.3,-100.00,SW,236,8.0,17.0,30,0.00,,,0.00,meteohub,2013-05-29 03:09:00,
2013-05-28 20:14:00,76.6,42.8,-100.00,West,259,6.0,15.0,30,0.00,,,0.00,meteohub,2013-05-29 03:14:00,
2013-05-28 20:19:00,76.5,42.8,-100.00,WSW,248,8.0,15.0,30,0.00,,,0.00,meteohub,2013-05-29 03:19:00,
2013-05-28 20:24:00,76.3,43.3,-100.00,WSW,250,9.0,15.0,31,0.00,,,0.00,meteohub,2013-05-29 03:24:00,
2013-05-28 20:29:00,75.9,43.2,-100.00,SW,222,12.0,12.0,31,0.00,,,0.00,meteohub,2013-05-29 03:29:00,
2013-05-28 20:34:00,75.7,43.7,-100.00,SSW,209,6.0,18.0,32,0.00,,,0.00,meteohub,2013-05-29 03:34:00,
2013-05-28 20:39:00,75.7,43.0,-100.00,SW,222,4.0,18.0,31,0.00,,,0.00,meteohub,2013-05-29 03:39:00,
2013-05-28 20:44:00,75.2,44.1,-100.00,SW,225,6.0,18.0,33,0.00,,,0.00,meteohub,2013-05-29 03:44:00,
2013-05-28 20:49:00,74.7,43.7,-100.00,SW,234,10.0,14.0,33,0.00,,,0.00,meteohub,2013-05-29 03:49:00,
2013-05-28 20:54:00,74.7,43.7,-100.00,WSW,244,8.0,14.0,33,0.00,,,0.00,meteohub,2013-05-29 03:54:00,
2013-05-28 20:59:00,74.5,43.5,-100.00,SW,226,5.0,14.0,33,0.00,,,0.00,meteohub,2013-05-29 03:59:00,
2013-05-28 21:01:00,74.3,44.1,-100.00,SW,227,8.0,14.0,34,0.00,,,0.00,meteohub,2013-05-29 04:01:00,
2013-05-28 21:06:00,73.9,43.9,-100.00,SW,232,10.0,15.0,34,0.00,,,0.00,meteohub,2013-05-29 04:06:00,
2013-05-28 21:11:00,73.8,43.7,-100.00,SW,215,10.0,15.0,34,0.00,,,0.00,meteohub,2013-05-29 04:11:00,
2013-05-28 21:16:00,73.8,44.4,-100.00,SW,225,8.0,15.0,35,0.00,,,0.00,meteohub,2013-05-29 04:16:00,
2013-05-28 21:21:00,73.6,44.2,-100.00,SW,234,9.0,14.0,35,0.00,,,0.00,meteohub,2013-05-29 04:21:00,
2013-05-28 21:26:00,73.6,44.2,-100.00,WSW,249,4.0,14.0,35,0.00,,,0.00,meteohub,2013-05-29 04:26:00,
2013-05-28 21:31:00,73.2,43.9,-100.00,WSW,237,9.0,15.0,35,0.00,,,0.00,meteohub,2013-05-29 04:31:00,
2013-05-28 21:36:00,73.2,43.9,-100.00,WSW,241,5.0,15.0,35,0.00,,,0.00,meteohub,2013-05-29 04:36:00,
2013-05-28 21:41:00,73.2,43.9,-100.00,SW,225,4.0,14.0,35,0.00,,,0.00,meteohub,2013-05-29 04:41:00,
2013-05-28 21:46:00,73.0,43.7,-100.00,SW,236,6.0,14.0,35,0.00,,,0.00,meteohub,2013-05-29 04:46:00,
2013-05-28 21:51:00,73.0,43.7,-100.00,SSW,200,7.0,12.0,35,0.00,,,0.00,meteohub,2013-05-29 04:51:00,
2013-05-28 21:56:00,72.9,44.4,-100.00,SW,226,5.0,13.0,36,0.00,,,0.00,meteohub,2013-05-29 04:56:00,
2013-05-28 22:01:00,72.9,44.4,-100.00,SW,229,8.0,14.0,36,0.00,,,0.00,meteohub,2013-05-29 05:01:00,
2013-05-28 22:06:00,72.7,44.2,-100.00,SSW,206,5.0,15.0,36,0.00,,,0.00,meteohub,2013-05-29 05:06:00,
2013-05-28 22:11:00,72.3,44.6,-100.00,SSW,213,7.0,15.0,37,0.00,,,0.00,meteohub,2013-05-29 05:11:00,
2013-05-28 22:16:00,72.1,44.4,-100.00,SSW,205,8.0,16.0,37,0.00,,,0.00,meteohub,2013-05-29 05:16:00,
2013-05-28 22:21:00,72.1,44.4,-100.00,SW,234,18.0,18.0,37,0.00,,,0.00,meteohub,2013-05-29 05:21:00,
2013-05-28 22:26:00,72.1,44.4,-100.00,SW,222,10.0,18.0,37,0.00,,,0.00,meteohub,2013-05-29 05:26:00,
2013-05-28 22:31:00,72.0,44.2,-100.00,SW,231,10.0,18.0,37,0.00,,,0.00,meteohub,2013-05-29 05:31:00,
2013-05-28 22:36:00,71.6,44.6,-100.00,SW,232,8.0,18.0,38,0.00,,,0.00,meteohub,2013-05-29 05:36:00,
2013-05-28 22:42:00,71.8,44.8,-100.00,SW,230,14.0,15.0,38,0.00,,,0.00,meteohub,2013-05-29 05:42:00,
2013-05-28 22:47:00,72.0,44.2,-100.00,WSW,238,8.0,15.0,37,0.00,,,0.00,meteohub,2013-05-29 05:47:00,
2013-05-28 22:52:00,71.6,44.6,-100.00,WSW,240,12.0,16.0,38,0.00,,,0.00,meteohub,2013-05-29 05:52:00,
2013-05-28 22:57:00,71.4,44.4,-100.00,SSW,199,7.0,16.0,38,0.00,,,0.00,meteohub,2013-05-29 05:57:00,
2013-05-28 23:02:00,71.2,44.2,-100.00,SW,221,10.0,16.0,38,0.00,,,0.00,meteohub,2013-05-29 06:02:00,
2013-05-28 23:07:00,71.6,44.6,-100.00,SW,217,7.0,15.0,38,0.00,,,0.00,meteohub,2013-05-29 06:07:00,
2013-05-28 23:12:00,71.2,44.2,-100.00,SW,229,12.0,15.0,38,0.00,,,0.00,meteohub,2013-05-29 06:12:00,
2013-05-28 23:17:00,71.1,44.2,-100.00,SW,234,8.0,15.0,38,0.00,,,0.00,meteohub,2013-05-29 06:17:00,
2013-05-28 23:22:00,70.9,44.1,-100.00,WSW,240,9.0,17.0,38,0.00,,,0.00,meteohub,2013-05-29 06:22:00,
2013-05-28 23:27:00,70.9,44.1,-100.00,SSW,213,10.0,19.0,38,0.00,,,0.00,meteohub,2013-05-29 06:27:00,
2013-05-28 23:32:00,71.1,43.5,-100.00,SSW,205,9.0,19.0,37,0.00,,,0.00,meteohub,2013-05-29 06:32:00,
2013-05-28 23:37:00,71.1,43.5,-100.00,SW,217,9.0,19.0,37,0.00,,,0.00,meteohub,2013-05-29 06:37:00,
2013-05-28 23:42:00,70.9,44.1,-100.00,SW,234,13.0,17.0,38,0.00,,,0.00,meteohub,2013-05-29 06:42:00,
2013-05-28 23:47:00,70.5,43.7,-100.00,WSW,243,7.0,17.0,38,0.00,,,0.00,meteohub,2013-05-29 06:47:00,
2013-05-28 23:52:00,70.3,43.5,-100.00,SW,222,9.0,15.0,38,0.00,,,0.00,meteohub,2013-05-29 06:52:00,
2013-05-28 23:57:00,70.5,43.7,-100.00,SSW,212,8.0,19.0,38,0.00,,,0.00,meteohub,2013-05-29 06:57:00,